Weather in Vetluzhsky

Russia / Kostroma Oblast     58°23′30″N   45°28′02″E
temp.,
°C
wind,
m/s
gust,
m/s
humid.,
%
clouds,
%
prec.,
mm/h
press.,
hPa
HPBL,
m
7 may, fri
fri700:00+10s4149244 0.1 1007562
03:00+10s51289100 0.1 1007617
06:00+10s41195100 0.4 1007520
09:00+10sw3692100 0.9 1008513
12:00+8w3791100 0.4 1009514
15:00+7w3692100 1.4 1010788
18:00+7s2591100 1.5 1011264
21:00+5ssw24953 1.5 101375
8 may, sat
sat800:00+3sw22910 0.0 101526
03:00+3ssw23933 0.0 101652
06:00+5s248555 0.0 1017121
09:00+11sse3561100 0.0 1017656
12:00+14sse463810 0.0 10151907
15:00+14sse5740100 0.0 10131941
18:00+13se4955100 0.0 1011884
21:00+9se41275100 0.0 1011446
9 may, sun
sun900:00+10sse31185100 0.1 1009464
03:00+9se41195100 1.4 1008541
06:00+9sse41294100 1.5 1008700
09:00+10sse41196100 5.5 1008545
12:00+10s41096100 1.4 1009549
15:00+13s41091100 1.5 1010789
18:00+11w2599100 3.0 1011219
21:00+10wsw2499100 6.8 1013141
10 may, mon
mon1000:00+9w2699100 2.2 1015312
03:00+7nnw3897100 4.8 1019481
06:00+6nnw3895100 0.8 1023565
09:00+8nnw378646 0.8 1025665
12:00+13n35495 0.0 10261357
15:00+14n34383 0.0 10271638
18:00+13n23545 0.0 1028141
21:00+8nnw116924 0.0 103010
11 may, tue
tue1100:00+6n117467 0.0 103110
03:00+5w117631 0.0 103110
06:00+9sw116782 0.0 103282
09:00+12wsw125792 0.0 1032306
12:00+17wsw224561 0.0 10321051
15:00+19w224776 0.0 10301259
18:00+17wsw2264100 0.0 103046
21:00+12w11814 0.0 103010